GFSFLT1_850_temp_105.txt.gz
Temp
19 19 20 20 20 20 20 20 21 20 20 20 19 19 19 19 18 17 17 17 17 15 15 15 14 14 13 12 12 12 12 12
18 19 19 19 19 20 20 20 20 21 19 20 19 19 20 19 18 17 17 16 16 16 15 14 13 13 13 13 12 11 12 11
18 18 19 19 19 20 20 20 20 20 21 21 20 20 20 20 18 17 17 16 16 15 15 14 13 13 13 12 12 11 11 11
15 17 18 19 19 19 20 19 20 20 20 20 20 18 18 18 17 17 17 16 15 14 14 13 13 12 12 12 12 11 12 11
11 12 15 16 18 19 19 20 20 19 19 20 20 20 19 19 18 18 17 17 15 14 13 13 12 12 12 12 12 11 12 12
5 7 9 13 16 17 19 20 21 20 20 19 20 19 19 20 18 18 17 17 15 14 13 12 12 12 12 12 12 12 12 11
4 4 6 9 13 16 19 20 21 21 20 19 19 20 19 18 18 18 18 17 15 13 13 12 12 12 12 12 12 11 11 11
2 2 4 8 11 15 17 19 17 17 19 20 19 17 18 18 19 18 17 17 15 13 13 12 12 12 12 11 11 11 11 11
0 1 2 5 9 10 13 14 13 13 14 14 16 17 17 17 18 17 18 17 15 13 13 12 12 12 11 11 11 11 11 10
-1 -1 1 5 7 9 10 11 13 13 13 14 14 16 17 18 18 17 16 15 13 13 12 12 11 11 11 11 11 10 10 10
-2 -2 1 3 6 8 9 10 11 13 13 14 14 17 17 17 17 16 15 14 13 13 12 11 11 11 10 10 10 10 10 10
-4 -4 1 2 4 6 8 9 10 11 12 13 14 16 15 16 15 15 14 13 13 12 12 11 11 10 10 10 10 10 10 10
-4 -3 -1 -1 2 5 6 8 10 10 12 14 14 15 15 14 14 14 13 12 12 12 11 10 10 9 9 9 10 10 10 10
-5 -5 -3 -2 0 2 4 6 8 9 10 13 14 14 14 14 13 13 12 12 11 11 10 9 10 9 9 9 9 10 10 10
-6 -5 -5 -3 -1 0 2 4 7 9 10 11 11 11 12 11 11 11 11 10 10 10 8 9 9 8 9 8 9 9 9 9
-7 -7 -6 -4 -3 -1 1 3 5 7 7 9 10 10 10 10 9 10 10 10 9 9 8 9 9 8 8 9 8 9 9 9
-7 -7 -6 -6 -4 -3 -1 1 2 3 4 5 8 9 10 10 9 9 9 9 10 9 8 8 8 8 8 8 8 9 9 9
-7 -7 -7 -6 -5 -4 -3 -1 1 1 2 4 5 8 9 9 9 9 9 9 10 8 9 8 8 8 8 8 8 8 9 9
-7 -7 -7 -6 -5 -4 -3 -2 -1 0 1 2 3 3 5 6 7 8 8 8 9 8 8 8 8 9 9 8 8 8 8 8

GFSFLT1_850_temp_111.txt.gz
Temp
14 14 15 15 17 17 18 18 18 18 18 18 19 18 18 18 19 19 18 17 18 18 18 18 16 16 15 14 13 13 13 12
12 12 14 14 15 16 17 18 18 18 18 18 18 18 18 19 19 19 19 17 17 18 17 18 16 16 16 15 14 13 13 12
9 11 12 12 14 15 17 17 18 18 17 18 18 18 19 19 19 19 19 19 17 18 17 18 17 16 15 15 14 13 13 13
5 5 7 9 10 12 15 16 17 17 17 15 15 14 14 15 15 18 19 19 18 17 17 16 17 16 16 16 15 14 13 13
2 2 3 5 7 9 12 15 16 17 17 16 13 15 13 13 18 19 19 19 18 18 17 16 16 16 16 16 15 14 13 13
-1 -0 1 3 5 5 7 12 13 16 17 16 15 14 15 13 17 18 18 19 19 18 17 17 15 16 16 16 15 14 13 12
-0 -1 0 2 3 4 5 6 9 13 16 16 15 15 13 13 14 16 17 18 19 18 17 16 16 16 16 16 15 13 13 12
-2 -2 -1 0 1 2 4 5 7 9 14 16 16 13 13 13 14 16 17 15 17 18 18 17 16 16 16 15 14 13 13 12
-4 -4 -3 -1 -1 1 2 3 7 8 10 13 11 11 12 12 12 13 14 14 16 17 18 17 17 17 16 15 14 13 13 12
-5 -5 -4 -3 -2 0 -0 3 6 7 9 10 11 12 12 13 12 12 14 15 16 15 17 17 17 16 16 14 13 13 13 12
-5 -5 -5 -3 -3 -2 -0 2 4 7 9 11 12 13 12 12 12 13 13 14 14 14 14 16 16 15 13 13 13 12 12 12
-6 -6 -6 -5 -4 -3 -2 2 5 7 9 11 12 12 12 12 12 12 13 13 14 14 14 15 15 14 13 12 12 12 12 11
-6 -6 -6 -6 -5 -4 -3 4 5 6 7 10 11 12 11 12 12 13 13 13 13 13 14 14 13 12 12 12 11 11 11 10
-7 -7 -7 -7 -6 -5 -2 -1 2 6 6 8 10 11 11 11 12 12 12 12 13 13 13 13 12 11 11 11 10 10 10 9
-7 -8 -7 -7 -6 -3 -3 -2 1 3 4 7 8 9 10 10 10 11 11 11 11 11 11 11 11 11 10 10 10 9 9 9
-8 -8 -8 -7 -6 -5 -4 -3 -0 0 2 5 6 7 9 9 10 10 10 10 10 10 9 9 9 10 9 9 8 8 8 9
-8 -8 -8 -7 -7 -5 -4 -3 -2 -1 -1 1 2 4 5 8 8 9 9 9 8 8 8 9 8 8 8 8 8 8 8 8
-9 -8 -8 -7 -7 -6 -5 -4 -2 -2 -1 -0 1 1 1 2 3 5 7 7 8 9 8 7 7 7 7 7 8 8 7 7
-8 -7 -6 -6 -5 -5 -4 -3 -3 -3 -3 -2 -0 -0 0 2 2 2 2 2 5 5 6 6 6 6 7 7 7 7 7 7

GFSFLT1_850_temp_114.txt.gz
Temp
15 14 13 12 12 13 15 15 15 16 15 14 14 14 14 14 15 16 19 19 17 17 14 14 16 16 16 15 14 13 13 13
10 10 9 9 9 10 12 15 14 14 14 14 15 14 14 15 15 16 18 18 18 16 15 16 18 18 16 15 14 13 13 13
7 7 7 6 6 7 7 9 11 11 12 14 15 15 14 15 15 15 15 16 18 18 18 18 18 18 15 15 15 13 13 13
5 5 5 4 4 5 5 7 8 11 10 10 14 14 14 14 14 14 14 17 19 19 19 18 18 17 17 14 15 15 13 13
4 3 3 3 3 2 4 6 9 9 8 9 11 15 15 14 13 13 18 18 18 19 19 18 18 17 17 16 14 15 13 13
3 2 1 1 2 1 2 4 7 8 5 6 8 11 14 15 14 13 15 19 18 17 19 18 18 18 17 16 14 14 15 13
1 1 0 0 0 0 4 4 5 7 7 6 7 9 13 15 15 14 13 15 18 18 18 17 17 18 17 17 15 14 15 14
-1 -1 -1 -2 -2 -0 3 4 4 5 6 6 8 8 10 14 15 15 14 13 12 15 17 17 16 17 17 16 16 14 14 14
-2 -3 -3 -3 -4 -3 -1 1 2 4 5 6 7 10 10 13 14 15 14 13 13 13 14 17 16 17 17 17 16 16 14 14
-3 -4 -4 -4 -5 -4 -2 -0 2 3 3 5 8 9 10 13 14 14 14 13 12 13 13 13 15 16 17 17 17 16 15 15
-5 -5 -6 -6 -5 -4 -2 -1 -0 1 2 4 8 10 11 12 12 13 13 13 13 13 12 13 14 16 17 16 16 16 14 14
-6 -6 -6 -6 -5 -5 -4 -1 -2 -0 2 4 8 10 11 12 12 12 13 13 13 13 12 12 12 13 14 16 16 15 14 13
-6 -7 -7 -7 -6 -6 -4 -4 -3 -1 1 5 9 11 12 12 12 12 12 12 13 13 13 12 12 13 13 13 15 13 13 12
-6 -7 -7 -7 -7 -6 -5 -6 -3 -1 1 4 8 11 11 11 11 11 11 12 12 11 12 12 12 12 12 13 13 12 11 11
-7 -7 -8 -8 -7 -7 -6 -4 -2 -1 1 4 6 8 9 10 10 11 11 11 11 11 10 11 11 11 11 11 11 11 11 10
-7 -8 -8 -8 -8 -6 -5 -4 -2 -0 -0 1 2 3 5 7 9 9 10 10 10 10 10 11 11 11 11 10 10 10 9 9
-8 -8 -8 -8 -7 -7 -6 -4 -3 -2 -0 0 -0 1 2 2 4 6 8 9 9 9 9 9 9 9 9 9 9 9 9 8
-9 -8 -8 -8 -7 -7 -6 -5 -3 -2 -2 -1 -1 -0 1 1 1 0 2 3 5 6 6 6 7 7 8 7 8 8 8 7
-9 -9 -9 -8 -8 -7 -7 -5 -3 -3 -3 -3 -2 -1 -0 -0 1 0 0 -1 1 2 3 3 4 4 7 7 7 7 7 7

GFSFLT1_850_temp_117.txt.gz
Temp
15 13 12 12 12 12 12 12 12 13 14 15 16 15 15 15 15 16 15 15 18 17 14 14 16 16 15 14 14 14 14 14
12 11 10 9 9 9 10 10 10 11 12 14 15 16 15 15 15 15 15 15 15 15 15 15 16 17 17 14 14 14 14 14
10 9 8 8 7 7 7 7 8 9 10 12 14 16 16 16 15 15 15 15 15 15 15 15 15 16 16 14 13 14 14 14
9 8 7 6 6 6 5 5 6 6 7 8 10 12 15 16 15 15 15 15 15 15 15 16 15 16 17 14 13 14 13 14
7 6 6 5 5 5 4 4 4 4 5 6 8 10 14 16 16 14 15 15 15 15 15 15 15 16 16 18 16 15 14 14
5 4 3 3 3 3 2 2 2 3 4 4 5 7 10 12 14 15 15 15 15 15 15 15 14 14 17 18 16 14 13 13
3 2 2 1 1 1 0 0 1 1 2 2 3 5 7 9 12 15 15 14 14 15 14 14 14 14 14 16 17 15 13 12
1 0 -1 -1 -2 -2 -2 -2 -1 -1 0 1 4 5 6 7 9 13 14 14 14 14 13 14 14 14 16 16 16 15 12 13
-1 -2 -3 -3 -4 -4 -4 -4 -3 -3 1 3 5 6 5 6 8 13 14 15 14 14 14 13 14 13 15 16 15 15 14 14
-3 -4 -4 -5 -5 -5 -5 -5 -4 -1 1 3 3 4 6 6 8 11 13 14 15 14 13 13 12 13 13 15 17 17 15 15
-4 -5 -6 -6 -6 -6 -6 -5 -4 -2 -1 1 2 4 6 7 8 11 12 13 15 14 13 13 12 12 13 13 14 15 15 15
-4 -5 -6 -6 -7 -6 -6 -5 -4 -2 -1 1 2 3 6 8 9 11 13 13 13 13 13 13 12 12 12 13 13 15 13 13
-5 -6 -6 -7 -6 -6 -6 -5 -4 -3 -1 1 0 3 6 9 11 12 12 13 13 13 13 13 12 12 12 12 13 13 13 13
-5 -6 -6 -6 -7 -6 -6 -5 -5 -3 -1 -2 -0 3 7 10 10 10 12 12 12 12 12 12 12 12 12 12 12 12 13 13
-6 -6 -6 -6 -6 -6 -6 -5 -4 -4 -3 -4 -2 3 6 8 9 11 11 11 12 13 12 12 12 12 12 12 12 12 12 12
-7 -7 -7 -7 -6 -6 -6 -6 -5 -4 -4 -2 -2 1 2 4 6 6 7 8 9 9 10 11 11 11 11 11 11 11 11 11
-7 -7 -7 -7 -7 -6 -6 -6 -6 -5 -4 -3 -2 -1 1 1 1 1 3 4 5 6 7 9 9 10 9 9 10 10 10 10
-8 -8 -8 -8 -7 -7 -6 -6 -5 -5 -5 -5 -3 -3 -1 -1 -0 0 0 0 1 2 2 4 6 8 7 8 8 8 8 8
-9 -9 -9 -9 -8 -8 -7 -7 -4 -4 -4 -5 -4 -2 -3 -3 -3 -1 -1 -1 -1 -0 -1 -0 1 2 3 4 5 5 6 4

GFSFLT1_850_temp_123.txt.gz
Temp
10 10 10 10 11 12 12 13 13 13 13 13 13 14 14 14 14 14 15 15 15 15 16 15 16 15 16 16 16 16 16 16
9 8 9 9 10 11 12 13 12 12 12 12 12 12 13 14 14 14 14 15 15 15 16 15 16 15 16 16 16 16 16 15
7 7 7 7 7 8 9 10 9 8 8 8 8 9 11 12 13 13 13 14 14 16 16 14 15 16 16 16 16 16 16 16
5 5 4 4 4 4 5 6 7 6 5 5 6 7 9 10 12 12 12 13 13 14 15 14 16 15 16 16 15 15 16 15
3 2 2 1 1 2 3 4 3 4 4 4 3 3 4 8 10 12 12 13 13 13 13 15 16 15 15 16 16 15 16 16
0 -1 -1 -0 1 2 2 2 2 2 3 2 2 2 2 2 7 10 12 12 13 12 12 13 14 14 15 16 16 15 15 17
1 0 0 0 0 -0 0 -0 -1 0 2 2 1 0 0 0 1 7 10 12 13 13 12 12 13 14 15 15 16 14 14 15
-3 -4 -4 -4 -4 -4 -4 -4 -3 -2 -2 -1 -1 -2 -3 -2 -1 2 7 10 12 13 12 12 13 13 14 14 14 14 13 13
-4 -4 -5 -5 -5 -5 -6 -6 -6 -4 -3 -2 -2 -1 -2 -2 -1 1 5 7 10 12 13 13 13 13 13 13 13 14 13 12
-5 -5 -5 -5 -5 -5 -6 -6 -6 -5 -5 -4 -3 -2 -1 -1 -1 1 4 7 9 10 11 12 14 13 13 13 13 13 13 13
-5 -5 -5 -5 -5 -6 -6 -5 -6 -6 -5 -5 -4 -3 -2 -1 -1 1 2 4 7 9 10 11 11 13 13 13 13 13 13 13
-6 -5 -5 -5 -6 -6 -6 -6 -6 -6 -6 -5 -5 -4 -3 -2 -1 1 2 3 6 8 9 9 10 11 12 13 13 13 11 12
-6 -6 -6 -6 -6 -6 -6 -6 -6 -6 -6 -6 -5 -4 -3 -3 -1 1 2 4 7 6 5 6 8 9 11 12 13 14 12 10
-6 -6 -6 -6 -6 -6 -7 -6 -6 -6 -6 -6 -6 -5 -4 -4 -2 -1 1 3 4 5 6 7 8 10 10 12 12 12 11 11
-6 -6 -6 -7 -6 -7 -7 -6 -6 -6 -6 -6 -6 -6 -6 -5 -4 -3 -2 1 3 4 6 7 8 8 9 10 12 13 12 11
-7 -6 -7 -7 -7 -7 -7 -6 -6 -6 -6 -6 -6 -6 -6 -6 -5 -3 -2 0 0 1 3 4 5 7 8 8 9 10 10 10
-7 -7 -7 -8 -8 -6 -6 -6 -6 -5 -5 -5 -5 -5 -4 -5 -4 -5 -2 -2 -3 -0 1 0 -0 1 2 1 4 3 5 7
-7 -7 -7 -7 -8 -6 -6 -6 -5 -5 -5 -5 -4 -4 -5 -5 -5 -4 -3 -1 -3 -1 -2 -1 1 0 0 1 1 3 0 2
-7 -7 -7 -7 -6 -6 -6 -5 -5 -5 -4 -4 -4 -3 -3 -4 -4 -4 -6 -5 -3 -4 -4 -3 -2 -3 -1 0 0 0 0 1

GFSFLT1_850_temp_129.txt.gz
Temp
5 6 6 7 8 9 9 10 11 11 12 13 13 14 14 14 15 15 15 15 14 14 13 12 13 12 13 13 14 14 15 15
4 5 6 7 8 9 9 9 10 11 12 13 14 14 15 15 15 15 14 14 13 13 13 13 11 11 12 12 13 13 14 14
4 5 6 6 7 7 8 8 9 9 9 9 10 11 13 13 14 14 13 12 12 12 11 11 11 13 12 11 12 13 13 14
3 3 3 4 5 5 6 6 7 8 8 8 8 8 9 10 11 11 11 10 10 11 11 11 11 12 11 11 11 13 13 13
1 1 1 1 1 1 2 3 4 5 5 5 5 5 7 6 7 8 9 8 9 9 10 10 10 11 12 10 11 10 12 12
-0 0 -0 -0 -0 0 0 0 -0 -0 0 1 1 1 2 3 3 4 6 5 6 7 8 9 10 10 11 11 10 12 12 11
-1 -1 -1 -1 -2 -2 -3 -2 -1 -1 -1 -0 -0 -1 -2 -0 0 1 3 3 4 5 6 7 8 9 10 11 10 10 11 11
-3 -3 -3 -3 -3 -3 -3 -3 -3 -3 -4 -3 -4 -4 -4 -4 -3 -3 -1 -1 -0 1 4 6 7 8 9 10 11 10 10 12
-3 -3 -3 -3 -3 -4 -4 -4 -4 -5 -5 -5 -6 -6 -5 -5 -4 -4 -3 -1 -1 -0 0 1 5 7 8 9 10 11 12 11
-3 -3 -3 -4 -5 -6 -6 -6 -6 -6 -6 -7 -7 -6 -6 -5 -4 -4 -3 -2 -2 -1 -0 0 1 4 7 8 10 11 11 12
-4 -4 -5 -5 -5 -5 -5 -5 -6 -6 -7 -7 -7 -6 -6 -6 -5 -4 -3 -3 -2 -1 -0 2 3 4 5 7 8 9 11 11
-5 -5 -5 -5 -5 -5 -5 -6 -6 -6 -6 -7 -7 -7 -7 -6 -5 -5 -4 -3 -2 -0 1 3 3 3 4 5 7 8 9 10
-5 -4 -4 -4 -4 -5 -5 -5 -5 -5 -7 -7 -7 -7 -7 -7 -6 -5 -4 -4 -2 -1 1 2 4 4 4 5 5 6 7 8
-5 -4 -4 -5 -5 -5 -4 -4 -5 -5 -6 -7 -7 -7 -8 -7 -6 -5 -5 -4 -3 -2 0 2 3 3 4 4 4 5 7 7
-5 -5 -5 -5 -5 -4 -3 -4 -4 -5 -5 -5 -6 -7 -7 -7 -6 -5 -5 -5 -4 -4 -3 -2 -1 0 2 3 4 5 6 7
-5 -5 -5 -5 -5 -4 -3 -4 -4 -4 -5 -5 -5 -5 -5 -5 -5 -5 -4 -4 -4 -4 -3 -3 -3 -3 -1 1 1 3 5 5
-6 -6 -5 -5 -5 -5 -4 -4 -4 -4 -4 -4 -4 -4 -3 -4 -3 -3 -3 -3 -3 -2 -2 -3 -3 -4 -2 -3 -1 -0 2 2
-6 -6 -6 -6 -5 -5 -4 -4 -5 -4 -3 -4 -4 -4 -4 -3 -3 -3 -2 -3 -2 -2 -3 -4 -4 -4 -3 -3 -3 -3 -2 -1
-6 -6 -6 -6 -6 -6 -5 -5 -4 -4 -4 -4 -4 -4 -4 -4 -3 -3 -3 -3 -3 -3 -5 -5 -5 -6 -4 -3 -2 -3 -3 -3

GFSFLT1_850_temp_132.txt.gz
Temp
5 6 6 7 8 8 9 9 10 10 11 12 12 13 13 13 13 13 13 14 13 14 14 13 12 14 15 15 11 12 13 13
4 5 6 7 8 8 8 9 9 9 10 11 12 13 13 13 13 13 14 13 12 13 13 13 12 13 13 12 12 13 14 12
4 5 6 6 7 7 7 8 8 8 8 9 8 9 10 10 11 11 11 11 11 11 11 13 12 12 12 11 11 13 12 12
2 3 3 4 5 5 5 6 6 6 6 6 7 7 7 8 8 9 9 10 10 9 9 10 12 10 11 11 10 11 12 12
1 1 2 2 2 2 2 3 3 3 3 3 3 3 4 4 5 6 7 6 8 8 8 8 10 10 10 11 10 11 11 11
-0 0 0 0 0 -1 -2 -2 -1 -1 -1 -1 -1 -1 -2 -1 0 1 2 4 5 5 5 6 7 8 9 10 10 10 11 11
-1 -1 -1 -2 -2 -3 -3 -3 -3 -3 -4 -4 -6 -6 -6 -5 -5 -4 -1 1 1 2 1 3 5 6 7 8 8 9 10 11
-1 -1 -1 -1 -2 -2 -2 -3 -3 -3 -4 -5 -6 -7 -6 -6 -5 -5 -4 -3 -2 -0 -0 -0 1 4 5 6 7 7 9 10
-2 -2 -2 -1 -2 -3 -3 -3 -3 -4 -4 -5 -6 -7 -7 -6 -6 -5 -4 -4 -3 -2 -1 -1 -1 0 1 4 6 8 9 9
-2 -2 -2 -2 -3 -3 -4 -4 -4 -5 -6 -7 -7 -7 -7 -7 -6 -6 -5 -4 -3 -3 -2 -1 -1 0 1 1 4 6 8 9
-3 -3 -3 -3 -3 -4 -4 -4 -4 -5 -6 -7 -7 -7 -8 -7 -7 -6 -5 -5 -4 -3 -2 -0 0 2 2 2 2 3 6 7
-4 -3 -4 -3 -3 -3 -3 -3 -4 -5 -6 -7 -7 -7 -8 -7 -7 -6 -6 -5 -4 -3 -2 -0 1 2 2 2 3 4 5 7
-4 -4 -3 -2 -2 -3 -3 -4 -3 -4 -6 -7 -7 -7 -6 -7 -7 -7 -6 -6 -6 -5 -3 -1 1 2 2 3 3 4 4 5
-4 -3 -3 -3 -3 -3 -3 -3 -3 -4 -5 -5 -5 -6 -7 -7 -7 -6 -6 -6 -6 -6 -4 -3 -1 0 2 2 3 4 4 5
-4 -4 -4 -3 -3 -4 -3 -3 -4 -4 -5 -5 -5 -5 -6 -6 -6 -5 -5 -5 -6 -6 -6 -5 -4 -2 -0 0 1 2 3 3
-4 -4 -4 -4 -4 -4 -4 -4 -4 -4 -4 -4 -4 -5 -5 -5 -5 -5 -5 -4 -5 -4 -5 -5 -5 -4 -3 -2 -1 -1 -1 0
-5 -5 -5 -4 -4 -5 -4 -4 -4 -4 -4 -4 -4 -4 -4 -4 -4 -4 -5 -5 -5 -4 -4 -4 -4 -5 -3 -2 -1 -2 -2 -2
-5 -5 -5 -5 -5 -5 -4 -4 -4 -4 -4 -4 -4 -4 -4 -4 -5 -5 -4 -4 -5 -5 -5 -5 -6 -5 -4 -4 -3 -2 -2 -3
-5 -5 -5 -5 -5 -5 -5 -5 -4 -4 -4 -4 -4 -4 -5 -5 -4 -5 -5 -5 -4 -4 -5 -5 -5 -5 -5 -4 -3 -2 -3 -3

GFSFLT1_850_temp_138.txt.gz
Temp
4 5 6 7 7 8 8 8 9 9 10 10 10 10 10 10 9 10 10 10 11 11 11 12 12 12 12 12 13 11 13 14
3 2 3 4 5 6 6 7 7 8 7 8 7 6 6 6 8 8 8 8 9 9 9 9 10 10 10 9 9 11 13 12
3 3 2 3 4 5 6 5 5 5 3 3 1 1 1 2 2 1 3 5 6 6 7 7 7 7 8 8 8 8 9 10
4 2 2 3 3 4 5 4 2 1 3 1 1 0 -0 -0 -1 -1 -1 -1 0 2 2 3 4 3 4 4 4 6 8 10
3 2 1 0 1 1 2 1 0 -1 0 -1 -4 -4 -3 -3 -3 -3 -3 -3 -3 -2 -1 -0 1 1 1 2 3 4 5 7
2 1 -0 -1 -1 -1 0 0 -1 -0 -1 -4 -5 -5 -5 -5 -5 -5 -5 -4 -4 -4 -3 -2 -2 -1 0 1 1 2 4 5
1 0 -0 -1 -1 -1 0 1 -0 -0 -1 -4 -6 -7 -7 -6 -6 -6 -5 -5 -5 -4 -4 -3 -3 -2 -1 -0 1 1 1 3
1 1 -0 -1 -2 -1 -1 -1 -2 -2 -3 -5 -7 -7 -8 -7 -7 -7 -7 -6 -6 -6 -5 -4 -3 -2 -2 -1 -0 0 1 1
1 -0 -1 -2 -2 -1 -1 -2 -3 -2 -3 -5 -7 -8 -8 -8 -8 -8 -8 -7 -7 -6 -5 -5 -4 -3 -2 -1 -1 -0 0 1
-0 -1 -2 -3 -3 -2 -1 -1 -2 -1 -4 -5 -6 -8 -8 -9 -8 -8 -8 -7 -7 -7 -6 -5 -3 -3 -2 -1 -1 -0 -0 0
-1 -2 -2 -3 -2 -1 -1 -0 -1 -1 -2 -3 -5 -6 -7 -7 -7 -8 -7 -7 -7 -6 -6 -5 -4 -3 -2 -0 1 1 0 0
-1 -1 -2 -1 -1 -0 0 -0 -0 -1 -2 -2 -4 -5 -5 -6 -6 -7 -8 -8 -7 -7 -6 -5 -4 -3 -1 -0 1 1 1 1
-2 -2 -2 -1 -1 -1 -0 -1 -1 -1 -2 -3 -4 -5 -5 -5 -6 -7 -7 -7 -8 -7 -7 -5 -4 -4 -3 -2 -1 -0 0 1
-4 -2 -2 -1 -1 -2 -2 -2 -2 -2 -2 -3 -3 -3 -4 -5 -5 -6 -6 -6 -7 -7 -6 -6 -5 -4 -4 -3 -2 -2 -1 -1
-4 -4 -2 -2 -2 -2 -2 -2 -2 -3 -3 -2 -3 -3 -4 -4 -5 -5 -5 -5 -5 -6 -7 -6 -5 -5 -4 -4 -3 -3 -3 -2
-4 -5 -3 -3 -3 -3 -3 -3 -3 -3 -3 -3 -3 -4 -4 -4 -4 -4 -5 -5 -5 -5 -5 -5 -6 -6 -5 -4 -4 -4 -4 -4
-4 -5 -5 -5 -5 -3 -3 -3 -3 -4 -3 -3 -4 -4 -4 -4 -4 -4 -4 -4 -5 -4 -5 -5 -5 -5 -5 -5 -4 -4 -4 -4
-4 -4 -5 -5 -5 -3 -3 -4 -4 -4 -3 -4 -4 -4 -4 -4 -4 -4 -4 -5 -5 -5 -4 -4 -4 -4 -4 -4 -3 -3 -4 -5
-4 -5 -6 -5 -5 -4 -4 -4 -4 -4 -4 -5 -5 -4 -4 -4 -4 -4 -5 -5 -5 -5 -5 -5 -5 -5 -4 -4 -4 -5 -5 -5

GFSFLT1_850_temp_144.txt.gz
Temp
8 7 8 7 9 10 10 10 10 10 10 10 10 9 9 8 7 6 4 3 3 3 2 3 5 6 7 7 6 8 9 10
8 7 7 6 7 8 8 8 8 8 9 8 8 7 7 6 5 3 3 3 2 1 1 1 1 2 3 3 5 6 8 9
9 8 7 6 5 5 6 6 6 7 6 5 4 4 4 2 1 2 2 1 0 -0 -1 -1 -1 -1 0 2 2 3 4 6
9 8 7 6 4 4 5 5 3 3 4 4 4 3 2 1 0 -1 -2 -1 -2 -2 -3 -3 -3 -3 -2 -1 0 2 3 4
9 8 7 5 4 3 3 2 2 1 2 2 1 -0 -1 -2 -3 -4 -4 -5 -5 -5 -5 -4 -4 -3 -3 -2 -1 0 2 3
9 7 6 5 4 3 2 2 1 1 2 1 2 1 -0 -2 -4 -5 -6 -6 -6 -6 -5 -5 -5 -5 -4 -3 -3 -2 -1 1
8 6 5 5 4 2 2 1 1 1 1 0 0 0 -2 -3 -5 -6 -6 -6 -6 -6 -6 -6 -6 -5 -5 -4 -3 -3 -2 -1
8 7 6 5 3 2 1 1 0 -0 1 -1 -0 0 -2 -3 -6 -7 -7 -7 -7 -7 -7 -6 -6 -6 -5 -5 -4 -3 -3 -2
8 7 5 4 2 1 0 0 -0 0 -1 -1 -0 0 -2 -3 -5 -7 -7 -7 -7 -7 -7 -7 -7 -6 -5 -4 -4 -3 -3 -2
8 6 4 3 1 0 1 1 0 0 -2 -1 0 -1 -2 -3 -4 -6 -7 -7 -8 -7 -8 -8 -7 -6 -5 -4 -3 -2 -1 -1
8 5 3 1 -0 -1 2 1 1 0 -1 -1 -0 -1 -2 -3 -4 -6 -6 -7 -8 -8 -8 -7 -6 -6 -5 -4 -3 -2 -0 -1
6 4 1 0 1 1 1 1 1 1 0 -1 -0 -1 -2 -4 -4 -5 -6 -6 -7 -8 -8 -7 -7 -7 -5 -5 -4 -3 -2 -2
5 4 2 2 1 1 1 1 1 0 -0 -1 -1 -2 -3 -3 -4 -6 -6 -6 -7 -8 -8 -7 -7 -7 -6 -5 -5 -5 -4 -3
3 3 1 1 1 0 0 0 0 -0 -0 -1 -1 -2 -3 -4 -5 -7 -6 -6 -6 -7 -7 -7 -7 -7 -6 -6 -6 -6 -5 -5
3 1 -0 -0 -0 -0 -0 -0 -1 -0 -1 -1 -2 -2 -4 -4 -5 -6 -6 -5 -5 -6 -6 -6 -7 -6 -6 -6 -5 -5 -5 -6
3 1 -1 -3 -2 -1 -1 -1 -1 -1 -1 -2 -2 -3 -4 -4 -5 -6 -6 -5 -5 -6 -6 -6 -6 -7 -8 -6 -5 -5 -5 -5
3 1 -1 -2 -3 -4 -3 -2 -2 -2 -2 -2 -3 -3 -4 -4 -5 -7 -6 -6 -6 -5 -5 -6 -5 -8 -9 -6 -6 -5 -5 -5
3 1 -0 -1 -3 -4 -4 -2 -2 -2 -3 -3 -3 -4 -4 -4 -5 -7 -7 -7 -7 -6 -6 -6 -6 -7 -9 -8 -7 -6 -6 -6
2 0 -1 -2 -3 -4 -4 -4 -3 -4 -4 -4 -4 -4 -4 -4 -5 -6 -8 -7 -7 -7 -7 -7 -7 -8 -8 -9 -7 -6 -6 -6

GFSFLT1_850_temp_147.txt.gz
Temp
10 9 8 8 9 9 10 10 10 10 10 10 10 9 9 8 7 7 5 5 4 3 2 2 1 2 3 5 5 6 5 6
10 9 8 8 9 9 9 9 10 10 9 9 9 8 7 6 6 5 5 4 3 2 1 1 -0 -0 -1 1 3 3 5 4
9 9 8 8 9 8 8 7 8 8 7 7 6 6 5 5 4 4 4 3 2 1 -1 -1 -2 -3 -3 -3 -2 0 2 3
9 8 7 7 7 7 7 6 6 6 6 6 6 6 5 5 4 3 2 1 -1 -2 -4 -5 -5 -4 -4 -4 -4 -3 -1 1
9 8 7 7 7 6 5 4 4 4 4 5 4 4 3 2 2 1 0 -2 -4 -5 -6 -5 -5 -5 -5 -5 -5 -4 -3 -2
9 8 7 6 5 4 4 2 3 3 3 4 3 3 2 1 1 -0 -1 -4 -6 -6 -6 -6 -6 -6 -6 -5 -5 -4 -4 -3
8 7 6 5 4 4 3 2 2 2 2 3 3 2 2 1 1 -1 -2 -5 -6 -7 -7 -7 -6 -6 -6 -6 -5 -5 -4 -3
8 7 5 5 4 4 3 2 2 2 2 2 2 2 1 1 -0 -3 -5 -6 -6 -7 -7 -7 -7 -7 -7 -6 -5 -4 -4 -3
8 7 5 5 4 4 3 3 2 2 2 2 1 0 1 0 -1 -3 -5 -7 -6 -7 -8 -7 -7 -7 -6 -5 -5 -4 -3 -2
8 7 6 4 3 4 3 3 2 1 2 1 1 0 0 -1 -2 -4 -6 -6 -6 -7 -7 -7 -7 -7 -6 -5 -4 -3 -3 -1
8 6 6 4 4 4 3 3 2 2 1 0 0 -0 -1 -1 -2 -4 -5 -5 -5 -6 -7 -7 -7 -7 -7 -6 -5 -4 -3 -3
7 6 5 5 4 3 3 2 2 1 1 0 0 -0 -1 -2 -3 -4 -4 -4 -5 -5 -6 -7 -7 -7 -7 -6 -6 -5 -5 -4
7 6 5 4 3 2 2 2 1 1 0 0 0 -0 -1 -2 -3 -4 -4 -4 -4 -5 -5 -6 -6 -7 -7 -6 -6 -6 -6 -6
7 6 4 3 3 2 1 1 1 1 0 -0 -0 -0 -1 -2 -3 -4 -4 -4 -4 -4 -4 -4 -6 -6 -6 -6 -6 -6 -6 -6
6 4 4 3 2 1 1 0 0 0 -0 -1 -1 -1 -1 -2 -3 -4 -4 -4 -4 -4 -5 -5 -6 -6 -6 -5 -5 -5 -6 -6
5 5 4 3 1 0 0 -0 -0 -0 -1 -1 -1 -1 -2 -2 -3 -4 -4 -4 -5 -5 -5 -5 -5 -8 -8 -6 -5 -4 -5 -5
5 4 2 2 1 -0 -1 -1 -1 -1 -2 -2 -2 -2 -2 -2 -3 -4 -4 -4 -5 -5 -4 -5 -5 -10 -10 -7 -6 -5 -4 -5
4 3 2 1 0 -1 -1 -2 -2 -3 -3 -2 -3 -3 -3 -3 -4 -5 -4 -5 -5 -5 -5 -5 -5 -8 -11 -8 -7 -6 -5 -5
4 3 1 0 -1 -2 -2 -3 -3 -4 -4 -3 -3 -3 -3 -4 -4 -4 -5 -6 -5 -6 -6 -6 -5 -7 -6 -7 -8 -7 -7 -6